Orange City, IA

2:04 PM CST on February 19, 2017 (GMT -0600)
Orange City Municipal

Weather History for KORC - January, 2013

Change the Weather History Date:

Wednesday, January 16, 2013

  Actual Average Record
Temperature  
Mean Temperature 32 °F -  
Max Temperature 46 °F 26 °F 48 °F (1951)
Min Temperature 17 °F 10 °F -20 °F (1953)
Degree Days  
Heating Degree Days 34    
Moisture  
Dew Point 22 °F    
Average Humidity 71    
Maximum Humidity 93    
Minimum Humidity 53    
Precipitation  
Precipitation 0.00 in - - ()
Sea Level Pressure  
Sea Level Pressure 29.94 in    
Wind  
Wind Speed 12 mph (WNW)    
Max Wind Speed 23 mph    
Max Gust Speed 31 mph    
Visibility 10 miles    
Events      
Averages and records for this station are not official NWS values.
T = Trace of Precipitation, MM = Missing Value Source: NWS Daily Summary

Daily Weather History Graph

Daily Weather History Graph

Search for Another Location

Airport or City:

Trip Planner

Search our weather history database for the weather conditions in past years. The results will help you decide how hot, cold, wet, or windy it might be!

Date:

Astronomy

Jan. 16, 2013 Rise Set
Actual Time 7:52 AM CST 5:16 PM CST
Civil Twilight 7:20 AM CST 5:48 PM CST
Nautical Twilight 6:45 AM CST 6:22 PM CST
Astronomical Twilight 6:11 AM CST 6:56 PM CST
Moon 10:19 AM CST (1/16) 11:19 PM CST (1/16)
Length of Visible Light 10h 27m
Length of Day
9h 24m
Waxing Crescent, 28% of the Moon is Illuminated
Jan 16
Waxing Crescent
Jan 18
First Quarter
Jan 26
Full
Feb 3
Last Quarter
Feb 10
New

Hourly Weather History & Observations

Time (CST) Temp. Windchill Dew Point Humidity Pressure Visibility Wind Dir Wind Speed Gust Speed Precip Events Conditions
12:15 AM 21.2 °F 9.5 °F 15.8 °F 80% 29.88 in 10.0 mi SW 11.5 mph - N/A   Clear
12:35 AM 19.4 °F 6.6 °F 15.8 °F 86% 29.87 in 10.0 mi SSW 12.7 mph - N/A   Clear
12:55 AM 21.2 °F 8.3 °F 14.0 °F 74% 29.86 in 10.0 mi SW 13.8 mph - N/A   Clear
1:15 AM 21.2 °F 8.9 °F 14.0 °F 74% 29.85 in 10.0 mi SW 12.7 mph - N/A   Mostly Cloudy
1:35 AM 21.2 °F 8.9 °F 15.8 °F 80% 29.84 in 10.0 mi SSW 12.7 mph - N/A   Overcast
1:55 AM 23.0 °F 10.1 °F 15.8 °F 74% 29.83 in 10.0 mi SW 15.0 mph - N/A   Overcast
2:15 AM 23.0 °F 11.1 °F 15.8 °F 74% 29.82 in 10.0 mi SW 12.7 mph - N/A   Overcast
2:35 AM 24.8 °F 13.4 °F 15.8 °F 69% 29.82 in 10.0 mi SW 12.7 mph - N/A   Overcast
2:55 AM 24.8 °F 13.4 °F 15.8 °F 69% 29.82 in 10.0 mi SW 12.7 mph - N/A   Overcast
3:15 AM 24.8 °F 14.6 °F 17.6 °F 74% 29.82 in 10.0 mi SW 10.4 mph - N/A   Overcast
3:35 AM 26.6 °F 15.2 °F 17.6 °F 69% 29.81 in 10.0 mi SW 13.8 mph - N/A   Overcast
3:55 AM 24.8 °F 14.0 °F 17.6 °F 74% 29.79 in 10.0 mi SW 11.5 mph - N/A   Overcast
4:15 AM 26.6 °F 15.7 °F 19.4 °F 74% 29.79 in 10.0 mi SW 12.7 mph - N/A   Overcast
4:35 AM 26.6 °F 18.2 °F 19.4 °F 74% 29.79 in 10.0 mi SW 8.1 mph - N/A   Overcast
4:55 AM 26.6 °F 16.8 °F 19.4 °F 74% 29.79 in 10.0 mi SW 10.4 mph - N/A   Overcast
5:15 AM 26.6 °F 16.8 °F 21.2 °F 80% 29.78 in 10.0 mi SW 10.4 mph - N/A   Overcast
5:35 AM 28.4 °F 18.5 °F 23.0 °F 80% 29.78 in 10.0 mi SW 11.5 mph - N/A   Overcast
5:55 AM 28.4 °F 19.7 °F 23.0 °F 80% 29.79 in 10.0 mi SW 9.2 mph - N/A   Overcast
6:35 AM 26.6 °F 20.0 °F 21.2 °F 80% 29.79 in 10.0 mi SW 5.8 mph - N/A   Scattered Clouds
6:55 AM 26.6 °F 20.0 °F 23.0 °F 86% 29.80 in 10.0 mi WSW 5.8 mph - N/A   Scattered Clouds
7:15 AM 26.6 °F 18.2 °F 24.8 °F 93% 29.81 in 10.0 mi SW 8.1 mph - N/A   Scattered Clouds
7:35 AM 26.6 °F 20.0 °F 24.8 °F 93% 29.82 in 10.0 mi SW 5.8 mph - N/A   Clear
7:55 AM 26.6 °F 21.2 °F 23.0 °F 86% 29.83 in 10.0 mi SW 4.6 mph - N/A   Clear
8:15 AM 26.6 °F 20.0 °F 24.8 °F 93% 29.83 in 10.0 mi SW 5.8 mph - N/A   Clear
8:35 AM 26.6 °F 22.6 °F 24.8 °F 93% 29.84 in 10.0 mi WSW 3.5 mph - N/A   Clear
8:55 AM 30.2 °F 21.9 °F 26.6 °F 86% 29.85 in 10.0 mi West 9.2 mph - N/A   Clear
9:15 AM 33.8 °F 25.8 °F 26.6 °F 75% 29.85 in 10.0 mi West 10.4 mph - N/A   Clear
9:35 AM 35.6 °F 27.5 °F 28.4 °F 75% 29.86 in 10.0 mi West 11.5 mph - N/A   Clear
9:55 AM 37.4 °F 28.5 °F 30.2 °F 75% 29.86 in 10.0 mi WNW 15.0 mph - N/A   Mostly Cloudy
10:15 AM 37.4 °F 28.9 °F 30.2 °F 75% 29.86 in 10.0 mi West 13.8 mph - N/A   Overcast
10:35 AM 39.2 °F 30.5 °F 32.0 °F 75% 29.86 in 10.0 mi West 16.1 mph - N/A   Scattered Clouds
10:55 AM 39.2 °F 29.8 °F 30.2 °F 70% 29.87 in 10.0 mi WNW 18.4 mph - N/A   Clear
11:15 AM 42.8 °F 34.8 °F 30.2 °F 61% 29.87 in 10.0 mi West 17.3 mph - N/A   Clear
11:35 AM 42.8 °F 36.2 °F 30.2 °F 61% 29.87 in 10.0 mi West 12.7 mph - N/A   Mostly Cloudy
11:55 AM 44.6 °F 37.8 °F 32.0 °F 61% 29.86 in 10.0 mi West 15.0 mph - N/A   Mostly Cloudy
12:15 PM 42.8 °F 35.4 °F 32.0 °F 66% 29.85 in 10.0 mi WNW 15.0 mph 21.9 mph N/A   Mostly Cloudy
12:35 PM 44.6 °F 37.2 °F 32.0 °F 61% 29.85 in 10.0 mi West 17.3 mph - N/A   Scattered Clouds
12:55 PM 44.6 °F 36.9 °F 30.2 °F 57% 29.85 in 10.0 mi WNW 18.4 mph - N/A   Clear
1:15 PM 44.6 °F 36.1 °F 30.2 °F 57% 29.85 in 10.0 mi West 21.9 mph 26.5 mph N/A   Clear
1:35 PM 46.4 °F 38.5 °F 30.2 °F 53% 29.85 in 10.0 mi WNW 21.9 mph 26.5 mph N/A   Clear
1:55 PM 46.4 °F 39.0 °F 30.2 °F 53% 29.85 in 10.0 mi WNW 19.6 mph 26.5 mph N/A   Clear
2:15 PM 46.4 °F 38.7 °F 30.2 °F 53% 29.87 in 10.0 mi NW 20.7 mph 28.8 mph N/A   Clear
2:35 PM 44.6 °F 36.6 °F 32.0 °F 61% 29.88 in 10.0 mi WNW 19.6 mph 29.9 mph N/A   Clear
2:55 PM 44.6 °F 36.1 °F 30.2 °F 57% 29.89 in 10.0 mi WNW 21.9 mph 31.1 mph N/A   Clear
3:15 PM 44.6 °F 35.9 °F 30.2 °F 57% 29.90 in 10.0 mi NW 23.0 mph 29.9 mph N/A   Clear
3:35 PM 44.6 °F 36.6 °F 30.2 °F 57% 29.92 in 10.0 mi NW 19.6 mph 26.5 mph N/A   Clear
3:55 PM 42.8 °F 35.4 °F 30.2 °F 61% 29.94 in 10.0 mi NNW 15.0 mph 24.2 mph N/A   Clear
4:15 PM 42.8 °F 35.4 °F 30.2 °F 61% 29.95 in 10.0 mi NNW 15.0 mph 23.0 mph N/A   Scattered Clouds
4:35 PM 42.8 °F 34.5 °F 30.2 °F 61% 29.97 in 10.0 mi NNW 18.4 mph 28.8 mph N/A   Scattered Clouds
4:55 PM 39.2 °F 30.5 °F 30.2 °F 70% 29.99 in 10.0 mi NNW 16.1 mph 23.0 mph N/A   Mostly Cloudy
5:15 PM 39.2 °F 30.8 °F 32.0 °F 75% 30.00 in 10.0 mi NNW 15.0 mph 19.6 mph N/A   Overcast
5:35 PM 35.6 °F 27.1 °F 28.4 °F 75% 30.04 in 10.0 mi North 12.7 mph 18.4 mph N/A   Overcast
5:55 PM 33.8 °F 25.8 °F 26.6 °F 75% 30.05 in 10.0 mi NNE 10.4 mph - N/A   Overcast
6:15 PM 32.0 °F 23.6 °F 26.6 °F 80% 30.07 in 10.0 mi North 10.4 mph - N/A   Overcast
6:35 PM 30.2 °F 21.3 °F 26.6 °F 86% 30.08 in 10.0 mi North 10.4 mph - N/A   Mostly Cloudy
6:55 PM 30.2 °F 21.3 °F 24.8 °F 80% 30.09 in 10.0 mi North 10.4 mph - N/A   Mostly Cloudy
7:15 PM 30.2 °F 21.3 °F 24.8 °F 80% 30.11 in 10.0 mi North 10.4 mph - N/A   Mostly Cloudy
7:35 PM 28.4 °F 16.2 °F 24.8 °F 86% 30.12 in 10.0 mi North 17.3 mph 21.9 mph N/A   Overcast
7:55 PM 26.6 °F 16.2 °F 21.2 °F 80% 30.14 in 10.0 mi North 11.5 mph 17.3 mph N/A   Scattered Clouds
8:15 PM 26.6 °F 17.5 °F 19.4 °F 74% 30.15 in 10.0 mi North 9.2 mph - N/A   Clear
8:35 PM 24.8 °F 14.0 °F 17.6 °F 74% 30.16 in 10.0 mi North 11.5 mph 18.4 mph N/A   Clear
8:55 PM 24.8 °F 15.3 °F 15.8 °F 69% 30.19 in 10.0 mi North 9.2 mph 18.4 mph N/A   Clear
9:15 PM 23.0 °F 11.7 °F 10.4 °F 59% 30.19 in 10.0 mi North 11.5 mph 17.3 mph N/A   Clear
9:35 PM 21.2 °F 9.5 °F 6.8 °F 54% 30.20 in 10.0 mi NNE 11.5 mph - N/A   Clear
9:55 PM 21.2 °F 10.9 °F 8.6 °F 58% 30.20 in 10.0 mi NNE 9.2 mph - N/A   Clear
10:15 PM 19.4 °F 11.5 °F 8.6 °F 63% 30.21 in 10.0 mi North 5.8 mph - N/A   Clear
10:35 PM 19.4 °F 12.8 °F 8.6 °F 63% 30.23 in 10.0 mi NNW 4.6 mph - N/A   Clear
10:55 PM 17.6 °F 10.7 °F 8.6 °F 68% 30.24 in 10.0 mi NW 4.6 mph - N/A   Clear
11:15 PM 17.6 °F - 6.8 °F 63% 30.24 in 10.0 mi Calm Calm - N/A   Clear
11:35 PM 17.6 °F 9.3 °F 3.2 °F 53% 30.25 in 10.0 mi NNW 5.8 mph - N/A   Clear
11:55 PM 17.6 °F 10.7 °F 3.2 °F 53% 30.25 in 10.0 mi NNW 4.6 mph - N/A   Clear